Regional Weather Roundup
Issued by NWS Pendleton, OR

Home | Current Version | Previous Version | Text Only | Print | Product List | Glossary On
Versions: 1 2 3 4 5 6 7 8 9 10 11 12 13 14 15 16 17 18 19 20 21 22 23 24 25 26 27 28 29 30 31 32 33 34 35 36 37 38 39 40 41 42 43 44 45 46 47 48 49 50
000
ASUS46 KPDT 020425
RWRPDT
PENDLETON REGIONAL WEATHER ROUNDUP
NATIONAL WEATHER SERVICE PENDLETON OREGON
900 PM PDT TUE SEP 1 2015

NOTE: FAIR INDICATES FEW OR NO CLOUDS BELOW 12,000 FEET WITH NO
SIGNIFICANT WEATHER AND/OR OBSTRUCTIONS TO VISIBILITY.

# INDICATES UNOFFICIAL STATION AND DATA

WAZ520-020510-
EAST SLOPES OF WASHINGTON CASCADES

CITY            SKY/WX      TMP DP  RH  WIND    PRES   REMARKS
#BULLFROG 2SW   N/A         55  48  77  N3      27.42R
#BUMPING DAM    N/A         55  N/A N/A S1      N/A
#CLE ELUM HS    N/A         59  48  67  W1      29.75R
#CLE ELUM LAKE  N/A         56  49  77  CALM    29.69S
#CLIFFDEL 2NW   N/A         57  46  67  CALM    N/A
#GLENWOOD       N/A         63  52  67  S5      29.73S
#MANASTASH CYN  N/A         58  44  60  CALM    29.77S
#NELSON         N/A         58  50  75  CALM    29.73R
#NELSON 3SW     N/A         53  49  86  CALM    29.92S
#NILE           N/A         61  48  62  CALM    28.99R
#RONALD 2NW     N/A         59  32  36  NW1     29.69S
#SNOWDEN        N/A         59  38  45  NW6     N/A
#TEANAWAY 4NE   N/A         59  52  78  CALM    N/A
#TROUT LAKE 1NE N/A         60  52  75  W5      29.77R
$$

WAZ521-020510-
SIMCOE HIGHLANDS

CITY            SKY/WX      TMP DP  RH  WIND    PRES   REMARKS
#BICKLETON HS   N/A         61  37  41  W15     N/A
#CENTERVILLE 4W N/A         64  50  60  CALM    29.58R
#CENTERVILLE 1SWN/A         64  50  60  W15     29.71R
#GOLDENDALE     N/A         65  48  54  W8      N/A
#GOLDENDALE 1NE N/A         65  37  35  SW1     N/A
#GOLDENDALE 5WNWN/A         65  51  60  W9      29.73R
#GOODNOE HILLS  N/A         68  50  53  W15G24  N/A
#LYLE 6NE       N/A         65  53  65  SW3     29.72S
$$

WAZ026-020510-
KITTITAS VALLEY

CITY            SKY/WX      TMP DP  RH  WIND    PRES   REMARKS
ELLENSBURG AP   CLOUDY      64  48  56  NW10    29.75S
#ELLENSBURG CWU N/A         62  50  65  W3      29.66R
#ELLENSBURG 3NE N/A         62  50  65  N6      29.76R
#KITTITAS 4N    N/A         63  47  56  N7      29.75R
#KITTITAS 3S    N/A         59  52  78  W2      29.68R
#THORP 6N       N/A         59  50  72  W14     29.72S
$$

WAZ027-020510-
YAKIMA VALLEY

CITY            SKY/WX      TMP DP  RH  WIND    PRES   REMARKS
SUNNYSIDE AP    CLOUDY      65  50  58  CALM    29.73R
YAKIMA AIRPORT  CLOUDY      71  45  39  NW7     29.73R
YAKIMA-VAGABOND MOCLDY      68  44  42  SW6     29.74S
#DONALD 2NE     N/A         66  42  42  W2      28.59S
#GRANDVIEW      N/A         70  47  44  NW2     29.72R
#MABTON         N/A         70  51  51  W7      29.72R
#NACHES 2SW     N/A         63  50  62  W2      29.75S
#OUTLOOK DOT    N/A         N/A N/A N/A W9      N/A
#SELAH 8E       N/A         65  43  45  W7      N/A
#TERRACE HTS    N/A         66  46  48  CALM    29.66S
#TOPPENISH      N/A         69  49  49  NW6     29.62S
#WAPATO 4NE     N/A         66  42  42  W2      28.59S
#W YAKIMA       N/A         67  48  50  CALM    29.68S
#WHITE SWAN 5E  N/A         68  50  53  SW10    29.70F
#WILEY CITY 3W  N/A         68  40  36  SW3     29.70S
$$

WAZ028-020510-
LOWER COLUMBIA BASIN...WASHINGTON

CITY            SKY/WX      TMP DP  RH  WIND    PRES   REMARKS
PASCO           CLOUDY      74  46  37  W13     29.73R
#BENTON CITY    N/A         70  48  46  W7      29.61R
#CONNELL 5N     N/A         70  48  46  SW5     29.68R
#CONNELL 5NW    N/A         68  50  53  SW6     29.65R
#ELTOPIA 6NW    N/A         69  50  51  SW8     28.70R
#KAHLOTUS       N/A         71  44  38  W13     29.68R
#KENNEWICK      N/A         55  48  77  N3      27.42R
#KENNEWICK 3S   N/A         72  46  39  N1      29.70R
#PASCO-BROADMOORN/A         73  48  41  E3      29.60R
#PATERSON       N/A         71  54  55  SW7     29.70
#PROSSER        N/A         71  45  39  W8      29.70R
#SAGEMOOR 2W    N/A         67  53  61  CALM    29.54R
#TOUCHET 2S     N/A         73  49  43  SW10    29.68R
#WEST PASCO     N/A         74  50  43  W1      29.65R
$$

WAZ029-020510-
FOOTHILLS OF THE BLUES...WASHINGTON

CITY            SKY/WX      TMP DP  RH  WIND    PRES   REMARKS
WALLA WALLA AP  CLOUDY      70  45  41  S6      29.75R
#DAYTON SCHOOL  N/A         66  40  38  CALM    29.76R
#LOWDEN 2SE     N/A         70  49  47  CALM    29.70R
#PRESCOTT       N/A         69  49  49  CALM    29.69R
#SUDBURY        N/A         70  N/A N/A CALM    N/A
#WHITMAN COLLEGEN/A         71  48  44  S1      29.76R
#WAITSBURG 5S   N/A         67  45  45  S3      29.79R
#WAITSBURG 8N   N/A         66  20  17  S6      29.59R
#WALLA WALLA U  N/A         72  50  46  CALM    29.70R
#WHITMAN MISSIONN/A         73  49  43  CALM    29.72R
$$

WAZ030-020510-
BLUE MOUNTAINS...WASHINGTON

CITY            SKY/WX      TMP DP  RH  WIND    PRES   REMARKS
#DIXIE 5SE      N/A         65  42  43  SW5     29.76R
#SKI BLUEWOOD   N/A         53  42  66  CALM    29.87R
$$

ORZ009-041-WAZ024-020510-
COLUMBIA RIVER GORGE

CITY            SKY/WX      TMP DP  RH  WIND    PRES   REMARKS
THE DALLES AP   CLOUDY      71  53  53  NW15    29.76R
#ARLINGTON AIRPON/A         70  50  49  NW12    N/A
#MOSIER 1S      N/A         66  45  47  W8      29.78S

$$

ORZ510-020510-
NORTH CENTRAL OREGON

CITY            SKY/WX      TMP DP  RH  WIND    PRES   REMARKS
#CHENOWITH 1W   N/A         62  52  70  NW18    N/A
#DUFUR 9E       N/A         60  51  72  CALM    29.80
#GRASS VALLEY 1SN/A         59  47  64  W2      29.80R
#MAUPIN SCHOOL  N/A         70  50  49  W10     29.81R
#MORO SCHOOL    N/A         63  55  75  W9      29.82R
#SHANIKO 4NW    N/A         58  46  64  NW8     29.86S
#TYGH VALLEY 2NEN/A         69  48  47  SW8     29.74R
#WASCO AIRPORT  N/A         66  47  50  W12     N/A
#WASCO 5NE      N/A         65  50  58  CALM    29.74R
$$

ORZ511-020510-
CENTRAL OREGON

CITY            SKY/WX      TMP DP  RH  WIND    PRES   REMARKS
BEND AIRPORT    CLOUDY      63  45  52  CALM    29.89R
PRINEVILLE AP   CLOUDY      63  45  52  W10     29.87R
REDMOND AIRPORT CLOUDY      63  45  52  NW9     29.86R
#BEND 1SW       N/A         63  42  46  SW2     N/A
#BEND-AWBREY    N/A         64  43  46  SW2     29.75R
#BEND-KIM LN    N/A         66  44  45  SW2     29.85R
#CULVER         N/A         64  46  52  W6      29.82R
#LAKE BILLY CHINN/A         63  16  16  W5      29.91R
#MADRAS         N/A         67  42  40  W14     N/A
#POWELL BUTTE 3EN/A         63  46  54  NW7     N/A
#POWELL BUTTE   N/A         62  45  54  W1      29.52R
#PRINEVILLE 3N  N/A         63  48  58  W9      29.73R
#WARM SPRINGS   N/A         70  47  44  CALM    29.78R

$$


ORZ509-020510-
EAST SLOPES OF OREGON CASCADES

CITY            SKY/WX      TMP DP  RH  WIND    PRES   REMARKS
#CAMP SHERMAN   N/A         60  45  58  CALM    29.83R
#LA PINE 4NW    N/A         59  44  57  CALM    29.84R
#SISTERS AIRPOR N/A         60  52  75  N17G26  30.17S
#SISTERS 1NW    N/A         61  45  56  NW12    N/A
#SISTERS 3N     N/A         60  44  55  W3      29.90R
#SUNRIVER       N/A         59  45  60  S2      29.67R
#TUMALO 3W      N/A         63  42  46  NW3     29.64R

$$

ORZ044-020510-
LOWER COLUMBIA BASIN...OREGON

CITY            SKY/WX      TMP DP  RH  WIND    PRES   REMARKS
HERMISTON       CLOUDY      72  47  41  SW10    29.75R
#BOARDMAN SCHOOLN/A         72  48  43  S2      29.74R
#BOARDMAN 8SW   N/A         68  52  57  SW6     29.73R
#ECHO 8SW       N/A         70  47  44  SW6     29.77R
#IRRIGON 4NW    N/A         73  50  44  SW8     N/A
#UMATILLA SCHOOLN/A         72  56  57  CALM    29.78R
#UMATILLA       N/A         73  47  40  SW9     29.65R
$$

ORZ507-020510-
NORTHERN FOOTHILLS OF THE BLUES

CITY            SKY/WX      TMP DP  RH  WIND    PRES   REMARKS
PENDLETON AIRPT CLOUDY      69  44  40  W12     29.77R
#ADAMS 3WNW     N/A         67  46  47  W8      29.72R
#ATHENA         N/A         68  46  45  CALM    29.75R
#CAYUSE         N/A         68  48  49  SW1     29.72R
#HELIX SCHOOL   N/A         67  46  47  NW6     29.72R
#HELIX 3N       N/A         66  45  47  SW13    29.77R
#HOLDMAN 5SE    N/A         69  47  45  W7      29.79R
#HOLDMAN 6E     N/A         67  45  45  N10     29.54R
#M-F GROVE ELEM N/A         71  42  35  SW6     29.75R
#M-FREEWATER 5SEN/A         66  47  50  W5      29.77R
#PENDLETON DNTN N/A         71  41  34  CALM    29.81R
#PDT AQUATIC CTRN/A         71  43  36  W5      29.77S
#PDT SUNRIDGE   N/A         71  46  41  W6      29.78R
#TUTUILLA       N/A         65  48  54  S1      29.75R
#UMAPINE 2E     N/A         67  50  54  SE1     29.71R
#WESTON SCHOOL  N/A         67  42  40  W3      29.72R

$$

ORZ508-020510-
SOUTHERN FOOTHILLS OF THE BLUES

CITY            SKY/WX      TMP DP  RH  WIND    PRES   REMARKS
#AJAX           N/A         63  44  50  SW2     29.78R
#CONDON 5W      N/A         57  45  64  NW2     29.83R
#FOSSIL SCHOOL  N/A         66  51  58  CALM    29.94S
#HEPPNER EOC    N/A         64  45  50  CALM    29.70R
#HEPPNER 4NE    N/A         61  46  58  W6      29.75R
#LEXINGTON 2SE  N/A         66  46  48  CALM    29.78R
#OLEX 4N        N/A         68  48  49  SW9     29.77R
#RUGGS 5NE      N/A         61  44  53  W2      30.01S
#RUGGS 2SW      N/A         59  45  60  W1      29.78R

$$

ORZ502-503-020510-
BLUE MOUNTAINS

CITY            SKY/WX      TMP DP  RH  WIND    PRES   REMARKS
MEACHAM         CLOUDY      59  41  51  CALM    29.87R
#HEPPNER 15SE   N/A         55  45  69  CALM    29.79R
#LONG CREEK HS  N/A         59  39  47  CALM    29.82R
#PIKES PEAK     N/A         64  42  45  SW14    27.99S
#TOLLGATE       N/A         53  41  64  CALM    29.79R
#TROY SCHOOL    N/A         70  45  41  CALM    29.53R
#UKIAH          N/A         61  45  56  W2      29.79R
#WESTON 4E      N/A         62  44  52  S2      29.70R
$$

ORZ505-020510-
JOHN DAY BASIN

CITY            SKY/WX      TMP DP  RH  WIND    PRES   REMARKS
JOHN DAY        MOCLDY      68  38  33  W6      29.86R
#JOHN DAY KJDY  N/A         75  -32  1  W5      30.03R
#MITCHELL       N/A         66  48  52  CALM    30.02R
#MITCHELL 8NW   N/A         63  43  48  CALM    29.93S
#MONUMENT HS    N/A         69  43  39  VRB6    29.82R
#MT. VERNON 5SE N/A         67  36  32  CALM    29.82R
#SPRAY SCHOOL   N/A         68  N/A N/A CALM    N/A
$$

ORZ506-020510-
OCHOCO AND JOHN DAY HIGHLANDS

CITY            SKY/WX      TMP DP  RH  WIND    PRES   REMARKS
#PINE MTN OBS   N/A         56  39  53  SW3     N/A
#PRAIRIE CITY   N/A         67  39  36  W1      29.70R
#SENECA         N/A         62  N/A N/A CALM    N/A
#SENECA 9NW     N/A         61  29  30  CALM    29.69R
$$

ORZ049-020510-
GRANDE RONDE VALLEY

CITY            SKY/WX      TMP DP  RH  WIND    PRES   REMARKS
LA GRANDE       CLOUDY      66  37  34  W13     29.81R
#COVE           N/A         66  48  52  CALM    29.83R
#COVE SCHOOL    N/A         66  45  47  CALM    29.84R
#ELGIN 3N       N/A         68  41  37  W2      29.80R
#ELGIN 1E       N/A         68  43  40  CALM    N/A
#ISLAND CITY 4N N/A         62  58  87  CALM    29.84R
#LA GRANDE ELEM N/A         67  44  43  W2      29.85R
#UNION 1S       N/A         69  45  42  NW7     29.60R
$$

ORZ050-020510-
WALLOWA COUNTY

CITY            SKY/WX      TMP DP  RH  WIND    PRES   REMARKS
#ENTERPRISE HS  N/A         65  42  43  CALM    29.85R
#IMNAHA SCHOOL  N/A         77  40  26  N7      29.73R
#IMNAHA 10S     N/A         74  39  28  E5      29.78R
#JOSEPH 3N      N/A         58  38  47  CALM    29.88R
#JOSEPH 3W      N/A         58  40  51  CALM    29.75R
#LOSTINE        N/A         64  43  46  CALM    29.51R
#MT HOWARD 8000 N/A         51  33  50  CALM    30.08S
#PROMISE 1S     N/A         64  41  43  CALM    29.81R
#WALLOWA SCHOOL N/A         68  42  39  CALM    29.78R



$$



USA.gov is the U.S. government's official web portal to all federal, state and local government web resources and services.